When you browse on this site, cookies collect data to enhance your experience and personalize the content and advertising you see.
Visit our Privacy Policy to learn more. By continuing to use the site, you agree to this use of cookies and data.
  • In Italy
  • List of Countries
  • For 7 days
  • Water Temperature
  • Satellite Maps
  • Weather Map
  • Weather Widgets
  • user-avatar
    Login

    Hourly Weather Ordino

    Today, 11 December, Tuesday

    Time Temperature Precipitation Wind Pressure Humidity
    00:00 -1°C° 0 mm 2 mps 637 mmHg 65%
    01:00 -1°C° 0 mm 2 mps 636 mmHg 65%
    02:00 -1°C° 0 mm 2 mps 636 mmHg 66%
    03:00 -1°C° 0 mm 2 mps 635 mmHg 66%
    04:00 +1°C° 0 mm 1 mps 635 mmHg 65%
    05:00 +1°C° 0 mm 1 mps 635 mmHg 64%
    06:00 -1°C° 0 mm 2 mps 635 mmHg 61%
    07:00 +2°C° 0 mm 1 mps 635 mmHg 58%
    08:00 +3°C° 0 mm 1 mps 635 mmHg 55%
    09:00 +4°C° 0 mm 1 mps 636 mmHg 51%
    10:00 +6°C° 0 mm 1 mps 636 mmHg 48%
    11:00 +7°C° 0 mm 1 mps 636 mmHg 46%
    12:00 +8°C° 0 mm 1 mps 636 mmHg 42%
    13:00 +8°C° 0 mm 1 mps 636 mmHg 46%
    14:00 +7°C° 0 mm 1 mps 635 mmHg 50%
    15:00 +7°C° 0 mm 1 mps 635 mmHg 54%
    16:00 +5°C° 0 mm 1 mps 634 mmHg 58%
    17:00 +4°C° 0 mm 1 mps 634 mmHg 63%
    18:00 +2°C° 0 mm 1 mps 633 mmHg 67%
    19:00 +2°C° 0 mm 1 mps 633 mmHg 66%
    20:00 +2°C° 0 mm 1 mps 633 mmHg 64%
    21:00 +2°C° 0 mm 1 mps 633 mmHg 63%
    22:00 +2°C° 0 mm 1 mps 633 mmHg 62%
    23:00 +2°C° 0 mm 1 mps 633 mmHg 61%

    Tomorrow, 12 December, Wednesday

    Time Temperature Precipitation Wind Pressure Humidity
    00:00 +2°C° 0 mm 1 mps 633 mmHg 60%
    01:00 +1°C° 0 mm 2 mps 633 mmHg 61%
    02:00 +1°C° 0 mm 2 mps 633 mmHg 61%
    03:00 +1°C° 0 mm 2 mps 633 mmHg 61%
    04:00 +1°C° 0 mm 2 mps 633 mmHg 62%
    05:00 -1°C° 0 mm 2 mps 633 mmHg 63%
    06:00 -1°C° 0 mm 2 mps 633 mmHg 64%
    07:00 +1°C° 0 mm 2 mps 633 mmHg 61%
    08:00 +2°C° 0 mm 2 mps 634 mmHg 58%
    09:00 +3°C° 0 mm 2 mps 634 mmHg 54%
    10:00 +5°C° 0 mm 1 mps 634 mmHg 54%
    11:00 +7°C° 0 mm 1 mps 635 mmHg 53%
    12:00 +8°C° 0 mm 1 mps 635 mmHg 53%
    13:00 +7°C° 0 mm 1 mps 634 mmHg 58%
    14:00 +6°C° 0 mm 1 mps 634 mmHg 62%
    15:00 +6°C° 0 mm 1 mps 633 mmHg 67%
    16:00 +5°C° 0 mm 1 mps 633 mmHg 74%
    17:00 +2°C° 0 mm 0 mps 632 mmHg 80%
    18:00 +1°C° 0 mm 0 mps 631 mmHg 87%
    19:00 +1°C° 0 mm 0 mps 631 mmHg 86%
    20:00 +1°C° 0 mm 1 mps 631 mmHg 85%
    21:00 +1°C° 0 mm 1 mps 631 mmHg 84%
    22:00 +1°C° 0 mm 1 mps 630 mmHg 83%
    23:00 +1°C° 0 mm 1 mps 630 mmHg 82%

    Day after tomorrow, 13 December, Thursday

    Time Temperature Precipitation Wind Pressure Humidity
    00:00 +1°C° 0 mm 1 mps 629 mmHg 80%
    01:00 +1°C° 0 mm 1 mps 629 mmHg 82%
    02:00 +1°C° 0 mm 1 mps 628 mmHg 83%
    03:00 +1°C° 0 mm 1 mps 627 mmHg 85%
    04:00 +1°C° 0.1 mm 1 mps 627 mmHg 84%
    05:00 +1°C° 0.1 mm 1 mps 626 mmHg 84%
    06:00 +2°C° 0.1 mm 1 mps 626 mmHg 83%
    07:00 +2°C° 0.3 mm 1 mps 626 mmHg 83%
    08:00 +2°C° 0.3 mm 1 mps 626 mmHg 83%
    09:00 +2°C° 0.3 mm 1 mps 625 mmHg 83%
    10:00 +3°C° 0.2 mm 1 mps 625 mmHg 82%
    11:00 +3°C° 0.2 mm 1 mps 625 mmHg 80%
    12:00 +4°C° 0.2 mm 1 mps 625 mmHg 79%
    13:00 +3°C° 0.5 mm 1 mps 625 mmHg 82%
    14:00 +2°C° 0.5 mm 2 mps 624 mmHg 86%
    15:00 +1°C° 0.5 mm 3 mps 624 mmHg 89%
    16:00 0°C° 0.4 mm 3 mps 624 mmHg 88%
    17:00 0°C° 0.4 mm 3 mps 624 mmHg 87%
    18:00 -1°C° 0.4 mm 3 mps 624 mmHg 86%
    19:00 -2°C° 0.4 mm 4 mps 625 mmHg 86%
    20:00 -2°C° 0.4 mm 4 mps 625 mmHg 85%
    21:00 -2°C° 0.4 mm 4 mps 625 mmHg 84%
    22:00 -2°C° 0.4 mm 4 mps 626 mmHg 85%
    23:00 -2°C° 0.4 mm 4 mps 626 mmHg 85%

    14 December, Friday

    Time Temperature Precipitation Wind Pressure Humidity
    00:00 -2°C° 0.4 mm 4 mps 626 mmHg 86%
    01:00 -2°C° 0.3 mm 4 mps 627 mmHg 86%
    02:00 -2°C° 0.3 mm 4 mps 627 mmHg 86%
    03:00 -2°C° 0.3 mm 4 mps 628 mmHg 86%
    04:00 -2°C° 0.2 mm 4 mps 628 mmHg 86%
    05:00 -2°C° 0.2 mm 4 mps 628 mmHg 85%
    06:00 -2°C° 0.2 mm 4 mps 628 mmHg 85%
    07:00 -2°C° 0.1 mm 4 mps 629 mmHg 83%
    08:00 -2°C° 0.1 mm 4 mps 630 mmHg 81%
    09:00 -1°C° 0.1 mm 4 mps 631 mmHg 79%
    10:00 0°C° 0 mm 4 mps 631 mmHg 76%
    11:00 0°C° 0 mm 4 mps 632 mmHg 73%
    12:00 +1°C° 0 mm 4 mps 632 mmHg 71%
    13:00 +1°C° 0 mm 4 mps 632 mmHg 71%
    14:00 +1°C° 0 mm 4 mps 632 mmHg 72%
    15:00 +2°C° 0 mm 3 mps 632 mmHg 72%
    16:00 +1°C° 0 mm 3 mps 633 mmHg 75%
    17:00 0°C° 0 mm 3 mps 633 mmHg 77%
    18:00 -1°C° 0 mm 3 mps 633 mmHg 79%
    19:00 -1°C° 0 mm 3 mps 633 mmHg 80%
    20:00 -2°C° 0 mm 3 mps 634 mmHg 80%
    21:00 -2°C° 0 mm 3 mps 634 mmHg 81%
    22:00 -2°C° 0 mm 3 mps 634 mmHg 81%
    23:00 -4°C° 0 mm 3 mps 634 mmHg 81%

    15 December, Saturday

    Time Temperature Precipitation Wind Pressure Humidity
    00:00 -3°C° 0 mm 2 mps 634 mmHg 81%
    01:00 -3°C° 0 mm 2 mps 634 mmHg 80%
    02:00 -3°C° 0 mm 2 mps 634 mmHg 79%
    03:00 -4°C° 0 mm 3 mps 633 mmHg 77%
    04:00 -4°C° 0 mm 3 mps 634 mmHg 73%
    05:00 -4°C° 0 mm 3 mps 634 mmHg 69%
    06:00 -4°C° 0 mm 3 mps 634 mmHg 66%
    07:00 -2°C° 0 mm 2 mps 635 mmHg 63%
    08:00 +1°C° 0 mm 2 mps 636 mmHg 61%
    09:00 +2°C° 0 mm 2 mps 636 mmHg 59%
    10:00 +4°C° 0 mm 2 mps 637 mmHg 58%
    11:00 +6°C° 0 mm 2 mps 637 mmHg 57%
    12:00 +8°C° 0 mm 2 mps 638 mmHg 56%
    13:00 +7°C° 0 mm 2 mps 638 mmHg 61%
    14:00 +8°C° 0 mm 1 mps 637 mmHg 66%
    15:00 +8°C° 0 mm 1 mps 637 mmHg 71%
    16:00 +7°C° 0 mm 1 mps 637 mmHg 75%
    17:00 +5°C° 0 mm 1 mps 636 mmHg 78%
    18:00 +4°C° 0 mm 1 mps 636 mmHg 81%
    19:00 +4°C° 0 mm 1 mps 636 mmHg 80%
    20:00 +4°C° 0 mm 1 mps 636 mmHg 79%
    21:00 +4°C° 0 mm 1 mps 637 mmHg 78%
    22:00 +4°C° 0 mm 1 mps 637 mmHg 78%
    23:00 +4°C° 0 mm 1 mps 637 mmHg 78%

    16 December, Sunday

    Time Temperature Precipitation Wind Pressure Humidity
    00:00 +4°C° 0 mm 1 mps 637 mmHg 78%
    01:00 +4°C° 0 mm 1 mps 636 mmHg 78%
    02:00 +4°C° 0 mm 1 mps 636 mmHg 78%
    03:00 +4°C° 0 mm 1 mps 636 mmHg 78%
    04:00 +4°C° 0 mm 1 mps 636 mmHg 78%
    05:00 +4°C° 0 mm 1 mps 636 mmHg 78%
    06:00 +4°C° 0 mm 1 mps 636 mmHg 79%
    07:00 +5°C° 0 mm 1 mps 636 mmHg 76%
    08:00 +6°C° 0 mm 1 mps 637 mmHg 74%
    09:00 +7°C° 0 mm 1 mps 637 mmHg 71%
    10:00 +8°C° 0 mm 1 mps 638 mmHg 66%
    11:00 +10°C° 0 mm 1 mps 638 mmHg 61%
    12:00 +10°C° 0 mm 2 mps 638 mmHg 56%
    13:00 +9°C° 0 mm 2 mps 638 mmHg 58%
    14:00 +9°C° 0 mm 2 mps 637 mmHg 60%
    15:00 +8°C° 0 mm 2 mps 637 mmHg 62%
    16:00 +7°C° 0 mm 2 mps 636 mmHg 63%
    17:00 +5°C° 0 mm 2 mps 636 mmHg 64%
    18:00 +3°C° 0 mm 2 mps 635 mmHg 64%
    19:00 +3°C° 0 mm 2 mps 635 mmHg 67%
    20:00 +3°C° 0 mm 2 mps 635 mmHg 69%
    21:00 +3°C° 0 mm 2 mps 635 mmHg 71%
    22:00 +3°C° 0 mm 2 mps 635 mmHg 74%
    23:00 +4°C° 0 mm 1 mps 635 mmHg 76%
    Show more